Regional Weather Roundup
Issued by NWS

Home | Current Version | Previous Version | Graphics & Text | Print | Product List | Glossary On
Versions: 1 2 3 4 5 6 7 8 9 10 11 12 13 14 15 16 17 18 19 20 21 22 23 24 25 26 27 28 29 30 31 32 33 34 35 36 37 38 39 40 41 42 43 44 45 46 47 48 49 50
686
ASUS44 KJAN 171410
RWRMS

MISSISSIPPI HOURLY WEATHER ROUNDUP
NATIONAL WEATHER SERVICE JACKSON MS
900 AM CDT THU APR 17 2014

NOTE: "FAIR: INDICATES FEW OR NO CLOUDS BELOW 12,000 FEET WITH NO
SIGNIFICANT WEATHER AND/OR OBSTRUCTIONS TO VISIBILITY.

MSZ001>002-007>008-010>013-018>021-025>028-034>036-171500-
NORTHWEST MISSISSIPPI

CITY           SKY/WX    TMP DP  RH WIND       PRES   REMARKS
CLARKSDALE       N/A     54  45  71 SE7       30.29R
CLEVELAND      FAIR      53  45  74 SE5       30.26R
GREENWOOD      MOSUNNY   55  43  63 SE9       30.27R
GREENVILLE     MOSUNNY   53  44  71 SE7       30.25R
GRENADA        FAIR      54  43  66 E10       30.29R
OLIVE BRANCH   MOSUNNY   54  39  58 SE14G20   30.29R
OXFORD         FAIR      54  39  58 S5        30.31S
TUNICA         SUNNY     54  43  66 SE9       30.29S
$$

MSZ003>006-009-014>017-022>024-029>033-037>039-171500-
NORTHEAST MISSISSIPPI

CITY           SKY/WX    TMP DP  RH WIND       PRES   REMARKS
BELMONT        FAIR      54  39  56 SE12      30.33R
COLUMBUS AFB   SUNNY     55  42  60 SE13      30.32R
CORINTH        FAIR      54  37  54 S12       30.33R
GOLDN TRIANGLE SUNNY     54  39  58 SE2       30.33R
STARKVILLE     FAIR      52  43  71 SE9       30.30S
TUPELO         SUNNY     55  40  56 SE14      30.32R
$$

MSZ040-058-171500-
CENTRAL MISSISSIPPI

CITY           SKY/WX    TMP DP  RH WIND       PRES   REMARKS
JACKSON INTL   PTSUNNY   54  44  69 VRB6      30.25S
JACKSON HAWKNS MOSUNNY   55  45  68 E3        30.26R
MERIDIAN KEY   CLOUDY    52  43  71 SE10G20   30.29R
MERIDIAN NAS   PTSUNNY   53  43  68 E13       30.30S
RAYMOND        FAIR      54  48  82 CALM      30.25F
VICKSBURG      MOSUNNY   54  47  77 E8        30.24S
$$

MSZ059>079-171500-
SOUTH MISSISSIPPI

CITY           SKY/WX    TMP DP  RH WIND       PRES   REMARKS
BROOKHAVEN     CLOUDY    52  46  82 NE3       30.25R
COLUMBIA       CLOUDY    52  46  82 MISG      30.23R
HATTIESBURG    CLOUDY    52  47  83 E5        30.25R
MCCOMB         CLOUDY    53  46  77 VRB7      30.21F
NATCHEZ        PTSUNNY   54  46  76 CALM      30.21R
PINE BELT      CLOUDY    50  45  81 E5        30.25R
$$

MSZ080>082-171500-
COASTAL MISSISSIPPI

CITY           SKY/WX    TMP DP  RH WIND       PRES   REMARKS
BAY ST LOUIS   PTSUNNY   57  50  77 NE6       30.20R
BILOXI         MOSUNNY   60  54  79 E9        30.20R
PASCAGOULA     CLOUDY    58  53  84 NE8       30.22R
GULFPORT       CLOUDY    61  52  72 NE8       30.20R
$$



USA.gov is the U.S. government's official web portal to all federal, state and local government web resources and services.